Santa Monica, CA

5:19 PM PDT on September 24, 2016 (GMT -0700)
Santa Monica Municipal

Weather History for KSMO - February, 2014

Change the Weather History Date:

Saturday, February 1, 2014

  Actual Average Record
Temperature  
Mean Temperature 60 °F -  
Max Temperature 66 °F 65 °F 87 °F (1935)
Min Temperature 52 °F 46 °F 35 °F (1946)
Degree Days  
Heating Degree Days 6    
Growing Degree Days 10 (Base 50)    
Moisture  
Dew Point 22 °F    
Average Humidity 26    
Maximum Humidity 44    
Minimum Humidity 10    
Precipitation  
Precipitation 0.00 in - - ()
Sea Level Pressure  
Sea Level Pressure 30.02 in    
Wind  
Wind Speed 6 mph (NNW)    
Max Wind Speed 10 mph    
Max Gust Speed 26 mph    
Visibility 10 miles    
Events      
Averages and records for this station are not official NWS values.
T = Trace of Precipitation, MM = Missing Value Source: NWS Daily Summary

Daily Weather History Graph

Daily Weather History Graph

Search for Another Location

Airport or City:

Trip Planner

Search our weather history database for the weather conditions in past years. The results will help you decide how hot, cold, wet, or windy it might be!

Date:

Astronomy

Feb. 01, 2014 Rise Set
Actual Time 6:50 AM PST 5:24 PM PST
Civil Twilight 6:24 AM PST 5:50 PM PST
Nautical Twilight 5:54 AM PST 6:20 PM PST
Astronomical Twilight 5:25 AM PST 6:50 PM PST
Moon 7:51 AM PST (2/1) 7:55 PM PST (2/1)
Length of Visible Light 11h 26m
Length of Day
10h 33m
Waxing Crescent, 5% of the Moon is Illuminated
Feb 1
Waxing Crescent
Feb 6
First Quarter
Feb 14
Full
Feb 22
Last Quarter
Mar 1
New

Hourly Weather History & Observations

Time (PST) Temp. Dew Point Humidity Pressure Visibility Wind Dir Wind Speed Gust Speed Precip Events Conditions
12:51 AM 55.9 °F 28.0 °F 34% 29.97 in 10.0 mi North 5.8 mph 19.6 mph N/A   Clear
1:51 AM 55.0 °F 28.0 °F 35% 29.96 in 10.0 mi North 4.6 mph - N/A   Clear
2:51 AM 55.0 °F 24.1 °F 30% 29.96 in 10.0 mi North 8.1 mph 21.9 mph N/A   Clear
3:51 AM 54.0 °F 23.0 °F 30% 29.97 in 10.0 mi NNW 9.2 mph - N/A   Clear
4:51 AM 53.1 °F 25.0 °F 34% 29.97 in 10.0 mi NNW 6.9 mph - N/A   Clear
5:51 AM 53.1 °F 25.0 °F 34% 29.99 in 10.0 mi Variable 6.9 mph - N/A   Clear
6:51 AM 53.1 °F 25.0 °F 34% 30.02 in 10.0 mi Calm Calm - N/A   Clear
7:51 AM 55.0 °F 25.0 °F 31% 30.04 in 10.0 mi Variable 4.6 mph - N/A   Clear
8:51 AM 57.9 °F 25.0 °F 28% 30.05 in 10.0 mi NNW 8.1 mph 16.1 mph N/A   Clear
9:37 AM 60.8 °F 26.6 °F 27% 30.05 in 10.0 mi North 10.4 mph 20.7 mph N/A   Clear
9:51 AM 60.1 °F 26.1 °F 27% 30.06 in 10.0 mi North 9.2 mph 20.7 mph N/A   Clear
10:51 AM 63.0 °F 23.0 °F 22% 30.05 in 10.0 mi North 9.2 mph 18.4 mph N/A   Clear
11:51 AM 64.0 °F 19.9 °F 18% 30.03 in 10.0 mi North 8.1 mph 26.5 mph N/A   Clear
12:51 PM 64.9 °F 17.1 °F 16% 30.00 in 10.0 mi North 10.4 mph 18.4 mph N/A   Clear
1:51 PM 66.9 °F 10.0 °F 11% 29.99 in 10.0 mi Variable 6.9 mph 20.7 mph N/A   Clear
2:51 PM 66.9 °F 10.0 °F 11% 29.99 in 10.0 mi Variable 6.9 mph 19.6 mph N/A   Clear
3:51 PM 66.0 °F 8.1 °F 10% 30.00 in 10.0 mi North 8.1 mph 16.1 mph N/A   Clear
4:51 PM 64.9 °F 7.0 °F 10% 30.02 in 10.0 mi Variable 4.6 mph - N/A   Clear
5:51 PM 59.0 °F 37.0 °F 44% 30.03 in 10.0 mi WSW 4.6 mph - N/A   Clear
6:51 PM 59.0 °F 25.0 °F 27% 30.03 in 10.0 mi Calm Calm - N/A   Clear
7:51 PM 57.0 °F 23.0 °F 27% 30.04 in 10.0 mi NNW 5.8 mph - N/A   Clear
8:51 PM 57.0 °F 23.0 °F 27% 30.05 in 10.0 mi NW 4.6 mph - N/A   Clear
9:51 PM 55.0 °F 19.9 °F 25% 30.06 in 10.0 mi North 4.6 mph - N/A   Clear
10:51 PM 54.0 °F 19.0 °F 25% 30.06 in 10.0 mi Calm Calm - N/A   Clear
11:51 PM 52.0 °F 19.9 °F 28% 30.06 in 10.0 mi NNE 4.6 mph - N/A   Clear